TimeMDT,TemperatureF,Dew PointF,Humidity,Sea Level PressureIn,VisibilityMPH,Wind Direction,Wind SpeedMPH,Gust SpeedMPH,PrecipitationIn,Events,Conditions,WindDirDegrees,DateUTC
12:53 AM,55.9,28.0,34,29.96,10.0,South,13.8,-,N/A,,Clear,190,2013-09-29 06:53:00
1:53 AM,55.0,28.0,35,29.94,10.0,South,11.5,-,N/A,,Clear,190,2013-09-29 07:53:00
2:53 AM,54.0,28.0,37,29.91,10.0,South,10.4,-,N/A,,Clear,190,2013-09-29 08:53:00
3:53 AM,55.9,27.0,33,29.87,10.0,South,10.4,-,N/A,,Mostly Cloudy,180,2013-09-29 09:53:00
4:53 AM,55.9,27.0,33,29.85,10.0,South,13.8,-,N/A,,Overcast,180,2013-09-29 10:53:00
5:53 AM,55.0,27.0,34,29.86,10.0,SSW,10.4,-,N/A,,Mostly Cloudy,200,2013-09-29 11:53:00
6:53 AM,50.0,30.0,46,29.91,10.0,WSW,9.2,-,N/A,,Mostly Cloudy,240,2013-09-29 12:53:00
7:53 AM,50.0,30.9,48,29.90,10.0,South,8.1,-,N/A,,Mostly Cloudy,180,2013-09-29 13:53:00
8:53 AM,55.0,30.0,38,29.90,10.0,South,9.2,-,N/A,,Overcast,170,2013-09-29 14:53:00
9:53 AM,55.0,33.1,43,29.91,10.0,SSW,15.0,-,N/A,,Overcast,210,2013-09-29 15:53:00
10:53 AM,57.0,39.0,51,29.88,10.0,SSW,21.9,32.2,0.00,Rain,Light Rain,200,2013-09-29 16:53:00
11:53 AM,57.9,37.9,47,29.88,10.0,SSW,24.2,34.5,0.00,,Overcast,210,2013-09-29 17:53:00
12:53 PM,61.0,37.0,41,29.83,10.0,SW,31.1,46.0,N/A,,Mostly Cloudy,220,2013-09-29 18:53:00
1:53 PM,59.0,36.0,42,29.84,10.0,South,20.7,27.6,N/A,,Overcast,190,2013-09-29 19:53:00
2:53 PM,60.1,35.1,39,29.86,10.0,WSW,17.3,32.2,N/A,,Mostly Cloudy,250,2013-09-29 20:53:00
3:53 PM,57.9,37.9,47,29.86,10.0,WSW,21.9,38.0,N/A,,Overcast,240,2013-09-29 21:53:00
4:53 PM,59.0,37.9,46,29.82,10.0,SW,24.2,31.1,N/A,,Overcast,220,2013-09-29 22:53:00
5:53 PM,59.0,39.0,48,29.81,10.0,South,16.1,25.3,N/A,,Mostly Cloudy,190,2013-09-29 23:53:00
6:53 PM,59.0,37.9,46,29.80,10.0,South,15.0,-,N/A,,Overcast,180,2013-09-30 00:53:00
7:53 PM,59.0,36.0,42,29.83,10.0,SW,15.0,19.6,0.00,,Overcast,220,2013-09-30 01:53:00
8:53 PM,57.9,37.0,46,29.86,10.0,SW,15.0,25.3,0.00,Rain,Light Rain,230,2013-09-30 02:53:00
9:53 PM,57.0,39.9,53,29.86,10.0,South,9.2,-,0.00,,Overcast,190,2013-09-30 03:53:00
10:53 PM,57.0,39.0,51,29.82,10.0,South,8.1,-,N/A,,Overcast,170,2013-09-30 04:53:00
11:53 PM,57.0,37.9,49,29.79,10.0,South,10.4,-,N/A,,Overcast,180,2013-09-30 05:53:00